Flag for Switzerland Weather past 2 weeks in Thun, Bern, Switzerland

Now
61 °F

Partly sunny.


Feels Like: 61 °F
Forecast: 41 / 70 °F
Wind: 10 mph from Southeast

Location: Bern / Belp

Current Time: May 23, 2015 at 6:56:12 PM

Latest Report: May 23, 2015 at 6:20 PM


Visibility: N/A

Pressure: 30.04 "Hg

Humidity: 52%

Dew point: 43 °F

Location of ThunLocation

Historic Weather in Thun — Graph

°F

Thun temperature yesterday

Maximum temperature yesterday: 63 °F (at 4:50 PM)
Minimum temperature yesterday: 41 °F (at 4:20 AM)
Average temperature yesterday: 51 °F

Past Weeks' High & Low Weather Summary

 TemperatureHumidityPressure
High84 °F (May 13, 3:20 PM)100% (May 8, 10:50 PM)30.36 "Hg (May 8, 10:50 PM)
Low39 °F (May 15, 1:20 PM)25% (May 12, 5:20 PM)29.77 "Hg (May 18, 5:50 PM)
Average57 °F73%30.11 "Hg
* Reported May 8 5:20 PM — May 23 5:50 PM, Thun, Weather by CustomWeather, © 2015

Note: Actual official high and low records may vary slightly from our data, if they occured in-between our weather recording intervals... More about our weather records

Advertising

Thun weather history for previous 24 hours

 ConditionsComfort  
Time TempWeatherWind HumidityBarometerVisibility
5:50 PM
Sat, May 23
61 °FPartly sunny.9 mph52%30.04 "HgN/A
5:20 PM63 °FScattered clouds.9 mph49%30.04 "HgN/A
4:50 PM64 °FScattered clouds.12 mph49%30.04 "HgN/A
4:20 PM61 °FScattered clouds.7 mph52%30.04 "HgN/A
3:50 PM59 °FPartly sunny.8 mph55%30.04 "HgN/A
3:20 PM59 °FPartly sunny.8 mph55%30.04 "HgN/A
2:50 PM61 °FPartly sunny.10 mph52%30.04 "HgN/A
2:20 PM59 °FBroken clouds.12 mph59%30.04 "HgN/A
1:50 PM59 °FBroken clouds.12 mph51%30.04 "HgN/A
1:20 PM61 °FScattered clouds.9 mph52%30.04 "HgN/A
12:50 PM59 °FScattered clouds.9 mph55%30.04 "HgN/A
12:20 PM59 °FScattered clouds.8 mph51%30.04 "HgN/A
11:50 AM59 °FPartly sunny.7 mph51%30.04 "HgN/A
11:20 AM59 °FPartly sunny.7 mph55%30.07 "HgN/A
10:50 AM57 °FScattered clouds.6 mph59%30.07 "HgN/A
10:20 AM57 °FPartly sunny.5 mph59%30.07 "HgN/A
9:50 AM55 °FPartly sunny.5 mph63%30.07 "HgN/A
9:20 AM55 °FPartly sunny.2 mph63%30.07 "HgN/A
8:50 AM54 °FScattered clouds.1 mph77%30.07 "HgN/A
8:20 AM52 °FScattered clouds.1 mph77%30.07 "HgN/A
7:50 AM48 °FScattered clouds.3 mph94%30.07 "HgN/A
7:20 AM45 °FScattered clouds.No wind100%30.07 "HgN/A
6:50 AM43 °FScattered clouds.2 mph100%30.07 "Hg5 mi
6:20 AM43 °FPartly cloudy.No wind93%30.07 "Hg4 mi
5:20 AM41 °FFog.3 mph93%30.07 "Hg2 mi
4:50 AM41 °FFog.1 mph100%30.07 "Hg2 mi
4:20 AM41 °FFog.No wind100%30.07 "Hg3 mi
3:50 AM41 °FPassing clouds.1 mph100%30.07 "Hg3 mi
3:20 AM43 °FFog.1 mph93%30.09 "Hg3 mi
2:50 AM43 °FFog.1 mph93%30.09 "Hg2 mi
2:20 AM45 °FPassing clouds.2 mph93%30.09 "Hg4 mi
1:50 AM45 °FPassing clouds.1 mph100%30.09 "Hg5 mi
1:20 AM45 °FPassing clouds.1 mph100%30.12 "Hg6 mi
12:50 AM45 °FPassing clouds.1 mph100%30.12 "Hg6 mi
12:20 AM46 °FClear.1 mph93%30.12 "HgN/A
11:50 PM
Fri, May 22
48 °FPartly cloudy.1 mph94%30.12 "HgN/A
11:20 PM48 °FPartly cloudy.1 mph94%30.12 "HgN/A
10:50 PM48 °FPartly cloudy.1 mph94%30.15 "HgN/A
10:20 PM48 °FPassing clouds.1 mph87%30.15 "HgN/A
9:50 PM48 °FPartly sunny.1 mph94%30.15 "HgN/A
9:20 PM50 °FScattered clouds.2 mph82%30.15 "HgN/A
8:50 PM52 °FPassing clouds.2 mph77%30.15 "HgN/A
8:20 PM55 °FScattered clouds.3 mph55%30.15 "HgN/A
7:50 PM55 °FPartly sunny.3 mph59%30.15 "HgN/A
7:20 PM57 °FBroken clouds.5 mph55%30.15 "HgN/A
6:50 PM57 °FBroken clouds.6 mph59%30.15 "HgN/A
6:20 PM57 °FBroken clouds.5 mph51%30.15 "HgN/A
Weather by CustomWeather, © 2015

See weather overviewHow to use our weather pages